Wind_Speed
34 33 33 32 32 31 30 29 26 24 23 22 21 19 17 16 16 15 15 15 14 14 14 15 15 15 14 13 13 13 14 14 14 15 15 15 14 15 15 15 15 15 15 15
36 35 33 33 33 32 31 30 28 26 25 24 23 22 20 19 18 17 17 16 16 16 16 16 16 15 15 14 14 14 14 14 15 16 16 16 15 16 16 16 16 16 16 15
35 35 35 35 34 33 32 30 29 27 26 26 25 23 22 21 20 19 18 18 17 18 17 17 17 16 16 16 16 16 16 16 16 16 16 17 17 16 16 16 17 17 17 16
35 35 37 35 34 33 32 31 29 28 28 27 26 24 24 23 22 21 20 20 19 20 19 18 18 17 18 18 18 18 17 17 18 18 18 18 17 17 17 17 18 18 17 16
36 36 36 36 35 33 32 32 31 30 29 28 27 26 26 26 24 23 22 22 22 22 21 21 21 20 20 20 20 20 19 19 19 19 20 19 18 18 19 18 18 18 17 17
38 36 35 36 34 32 32 33 32 31 30 29 29 29 28 27 26 25 24 24 24 23 23 23 22 22 22 22 22 22 21 21 21 22 22 21 21 20 19 19 19 18 17 18
38 37 35 36 33 32 33 32 30 30 30 30 29 28 28 28 27 26 26 26 26 25 25 24 24 24 24 24 24 23 23 23 23 23 23 23 22 21 20 20 19 19 18 19
38 37 37 36 34 34 33 31 30 30 29 30 29 29 28 28 28 28 27 28 27 27 26 25 25 25 25 25 24 24 24 24 25 25 24 23 23 22 21 20 19 19 19 20
38 37 37 35 34 34 33 32 30 30 30 30 29 29 28 28 28 28 27 27 27 28 27 26 26 26 26 25 25 25 25 25 25 25 24 24 22 21 21 20 20 20 20 20
38 37 35 34 33 33 33 33 31 30 30 30 30 29 29 29 29 29 28 28 28 28 28 28 27 26 27 27 26 26 26 26 25 25 24 23 22 22 21 21 21 21 21 21
38 37 35 34 32 32 32 32 31 30 29 30 31 30 29 29 30 30 29 29 29 29 29 28 27 27 26 26 26 26 26 27 26 25 24 23 23 22 21 21 21 22 22 22
38 37 36 34 32 32 31 31 31 30 29 29 30 31 30 30 30 30 30 30 30 30 29 28 27 26 26 26 26 26 26 26 26 25 24 23 23 22 22 21 21 22 23 23
38 37 37 35 34 33 32 31 31 30 29 29 30 31 31 30 30 30 30 29 29 29 29 28 27 26 27 27 27 26 26 26 26 25 25 24 23 23 23 23 22 23 23 23
37 37 36 36 35 33 33 32 31 30 30 29 29 30 31 31 30 31 30 29 29 28 28 28 27 27 27 27 27 26 26 27 26 26 25 24 24 24 24 24 24 23 23 23
36 35 35 34 34 33 32 31 31 31 30 30 29 29 30 31 31 31 31 30 30 29 29 28 28 27 27 27 26 26 26 27 26 26 25 25 25 25 26 26 25 24 24 24
35 35 35 34 32 32 31 31 30 30 31 30 30 30 31 31 31 31 31 31 31 30 29 29 28 27 28 27 27 27 28 27 27 26 25 25 25 25 26 26 25 25 24 25
34 34 34 33 32 31 31 31 30 30 30 31 31 32 31 32 32 31 32 31 31 30 30 30 29 29 29 29 28 28 27 27 27 26 26 25 25 26 26 26 25 25 25 25
33 33 33 32 32 32 32 31 31 31 31 32 32 32 32 32 32 32 32 33 33 32 32 31 31 30 30 30 30 29 28 28 27 26 26 26 26 26 26 26 26 25 26 26
32 31 31 31 32 32 31 31 32 32 32 32 32 31 32 32 31 32 32 32 32 32 32 32 32 31 31 31 30 29 28 28 28 27 27 27 27 26 26 26 27 27 27 28
31 30 29 29 30 31 31 31 31 31 31 31 31 32 31 31 30 30 31 31 31 31 31 31 32 32 31 31 30 29 28 28 28 27 27 27 27 27 27 27 28 28 29 29
29 29 28 28 29 29 30 30 30 31 31 30 30 30 30 30 31 30 30 31 31 31 31 31 31 31 30 29 29 29 28 28 28 27 27 27 28 28 28 28 29 29 29 29
28 28 27 27 28 28 29 29 30 30 30 30 30 30 29 30 30 31 31 31 31 31 31 31 30 29 29 29 28 28 28 27 28 28 29 29 29 29 29 29 29 30 30 30
27 26 26 26 27 27 28 28 28 28 29 29 29 29 28 29 29 30 29 29 30 29 29 29 30 29 29 29 28 28 28 28 28 29 29 29 30 29 29 30 30 30 31 31
25 26 26 26 25 26 26 26 27 27 27 28 28 28 28 28 28 28 28 28 27 27 28 28 29 29 28 27 27 27 27 28 28 28 28 29 29 30 30 31 31 31 30 31
23 24 24 24 24 24 25 26 26 25 26 26 26 27 27 27 27 27 27 27 27 28 28 28 28 28 28 28 28 28 28 29 29 29 29 30 31 31 31 32 32 31 31 31
20 21 22 22 23 23 24 25 25 25 24 25 26 26 26 26 26 26 26 27 27 28 28 28 28 28 28 28 29 30 30 29 29 30 30 31 31 31 31 32 32 31 31 32
18 18 19 21 21 21 22 23 23 23 23 23 24 25 25 25 25 26 26 26 27 27 27 27 27 27 27 28 28 28 28 28 28 29 30 31 30 30 31 31 31 31 32 33
Wind_Direction
225 229 233 234 234 235 235 237 239 242 244 249 252 252 255 259 259 258 261 264 268 276 284 291 296 300 303 306 309 312 313 316 318 318 322 325 324 324 324 326 326 326 324 323
226 229 232 234 235 235 236 237 239 241 243 247 250 252 253 256 256 256 261 264 267 272 280 288 292 294 296 299 304 307 311 313 314 318 320 323 324 322 321 321 322 323 322 320
227 229 231 233 234 236 238 239 240 241 242 245 248 250 251 252 253 255 260 263 266 271 277 285 289 289 292 293 297 301 304 307 310 313 315 317 319 319 319 319 319 318 317 317
227 229 232 233 234 236 239 240 241 241 243 245 248 249 249 249 251 255 260 263 266 269 274 279 284 287 291 292 293 295 298 302 305 307 309 310 313 314 314 316 316 315 313 313
227 231 234 234 234 236 238 239 240 242 243 243 246 248 249 250 252 254 258 262 265 268 272 277 282 285 288 291 292 293 294 298 301 302 305 307 308 309 310 311 312 312 311 312
227 230 233 235 234 235 238 240 239 241 242 243 245 246 249 251 252 253 256 260 264 267 271 276 280 283 285 288 288 290 292 294 297 299 300 303 305 305 305 306 307 307 309 311
228 230 233 235 235 234 236 238 238 240 242 243 245 246 248 249 250 252 254 258 262 265 270 273 277 280 281 282 284 285 288 291 293 296 297 299 300 301 302 304 305 304 305 308
227 229 233 235 235 235 236 238 239 240 241 243 245 245 246 247 249 251 254 258 261 265 268 271 274 277 278 278 280 281 285 288 290 291 293 294 296 297 299 301 301 303 303 304
228 230 235 237 237 238 238 239 240 242 242 243 244 244 245 247 249 251 255 258 261 264 268 271 274 275 275 276 278 280 282 285 288 289 290 292 292 293 296 297 298 299 301 303
227 230 234 237 238 238 240 240 241 243 243 243 243 244 246 247 250 252 257 258 262 265 269 272 274 276 276 277 278 280 281 282 284 285 288 290 290 291 293 295 296 298 300 302
228 230 232 234 236 238 240 240 241 242 243 243 243 243 245 247 250 253 256 258 263 266 269 272 273 274 276 276 278 279 281 282 281 282 285 286 289 290 291 293 296 298 299 300
228 229 231 233 236 238 239 240 241 241 242 243 243 244 246 248 251 254 256 259 262 265 267 269 271 273 275 275 276 277 279 280 280 281 281 283 286 288 289 291 295 298 298 299
229 230 232 234 236 238 240 241 241 242 243 244 244 244 246 248 250 253 255 257 260 263 265 268 271 273 273 275 275 276 277 277 278 279 279 281 283 287 290 291 293 297 298 298
229 231 233 235 237 239 241 242 242 242 243 244 244 244 245 247 250 251 253 255 258 261 263 267 270 272 274 274 274 276 276 275 274 275 276 278 281 285 288 289 291 294 296 297
228 230 232 234 236 238 240 241 241 243 244 245 245 245 247 249 250 251 253 254 256 258 261 265 268 271 272 272 272 274 276 274 273 273 274 277 279 282 285 287 288 292 294 295
229 230 232 234 237 239 240 241 241 242 244 245 245 245 246 247 250 251 252 254 257 259 260 264 265 268 270 270 271 272 274 274 273 273 275 276 277 279 282 284 286 289 291 294
228 229 232 234 235 237 239 240 240 241 243 245 246 246 245 246 249 250 251 253 255 256 260 262 264 267 269 270 272 273 272 271 272 272 274 276 276 278 280 282 283 286 289 291
229 231 231 232 233 235 238 239 239 241 243 245 247 247 247 248 247 249 250 251 254 257 259 262 264 265 267 270 272 273 271 271 272 271 272 273 275 277 279 280 282 284 287 289
229 231 233 233 234 235 238 239 241 242 243 245 245 247 247 247 248 249 250 252 254 256 259 262 265 267 268 269 269 270 270 270 269 269 271 274 276 276 277 280 282 284 286 288
229 231 234 235 235 237 241 243 243 243 244 247 249 249 248 249 250 250 251 253 256 258 260 262 264 266 267 266 267 269 270 271 271 271 272 274 276 276 279 282 283 285 287 287
229 232 234 236 237 237 240 242 244 246 248 248 249 250 250 250 250 250 252 254 255 257 260 262 264 265 266 266 267 268 269 271 271 272 274 275 277 278 281 283 284 285 286 287
229 232 234 237 238 240 242 243 246 248 247 246 247 249 250 250 250 251 252 254 256 257 259 260 262 264 265 265 266 267 268 268 268 270 273 275 277 278 281 284 285 285 286 287
230 232 234 237 239 241 242 243 246 248 247 245 247 247 248 250 251 251 252 255 256 256 257 258 261 264 265 264 264 265 267 268 269 271 273 274 275 277 280 283 284 285 285 286
228 231 233 236 239 241 241 242 244 247 247 247 248 248 249 250 250 250 252 253 254 256 258 260 261 262 264 265 265 266 268 269 270 272 273 274 275 277 280 282 284 285 285 286
226 230 232 235 238 239 240 242 244 248 250 249 248 248 249 249 249 248 251 253 255 256 258 260 261 262 263 264 266 267 270 271 272 273 272 274 276 278 280 282 282 283 285 287
223 227 231 234 237 239 241 243 246 250 251 249 247 248 249 250 250 251 252 254 256 258 259 261 261 260 262 264 266 269 271 272 272 273 274 275 277 279 281 281 282 284 286 288
225 229 233 236 238 240 242 244 246 249 250 248 246 246 247 251 253 253 255 257 258 260 260 261 260 261 262 265 268 270 271 271 272 273 275 277 278 280 280 281 283 285 288 289
Height
5879 5883 5886 5890 5894 5898 5902 5906 5910 5913 5916 5917 5918 5919 5920 5921 5922 5922 5923 5923 5922 5922 5921 5920 5919 5918 5916 5915 5913 5911 5910 5908 5906 5903 5901 5899 5897 5895 5893 5890 5888 5886 5884 5882
5871 5876 5879 5883 5887 5891 5895 5899 5903 5907 5910 5911 5912 5914 5915 5916 5917 5918 5918 5919 5919 5918 5917 5916 5915 5914 5913 5912 5910 5908 5907 5905 5903 5901 5899 5897 5894 5892 5890 5888 5885 5883 5881 5879
5865 5869 5872 5876 5881 5885 5889 5892 5897 5900 5904 5904 5906 5908 5910 5911 5912 5913 5914 5914 5914 5914 5913 5912 5911 5910 5909 5908 5906 5905 5903 5902 5900 5898 5896 5894 5892 5890 5887 5885 5883 5880 5878 5876
5858 5862 5865 5872 5875 5878 5882 5886 5890 5893 5896 5898 5900 5902 5904 5905 5907 5908 5909 5909 5909 5909 5909 5908 5907 5906 5905 5904 5902 5901 5899 5898 5896 5894 5893 5890 5889 5887 5884 5882 5879 5877 5875 5872
5850 5854 5858 5863 5867 5871 5875 5879 5882 5886 5888 5891 5893 5895 5897 5899 5901 5902 5903 5904 5904 5904 5903 5903 5902 5901 5900 5899 5898 5896 5895 5894 5892 5890 5888 5887 5885 5883 5880 5878 5876 5873 5871 5869
5842 5847 5851 5857 5860 5864 5869 5871 5875 5878 5881 5884 5886 5889 5891 5892 5894 5896 5897 5898 5898 5898 5898 5898 5897 5896 5895 5894 5893 5892 5890 5889 5888 5886 5884 5882 5880 5878 5876 5874 5872 5870 5867 5865
5834 5839 5844 5848 5852 5857 5861 5865 5868 5871 5874 5876 5879 5882 5884 5885 5887 5889 5890 5891 5892 5892 5892 5892 5891 5890 5889 5888 5887 5886 5885 5884 5882 5881 5879 5877 5876 5874 5872 5869 5867 5865 5863 5861
5827 5832 5838 5840 5845 5849 5853 5857 5860 5863 5866 5869 5871 5874 5876 5878 5880 5882 5883 5884 5885 5885 5885 5885 5884 5884 5883 5882 5881 5880 5879 5878 5877 5875 5874 5872 5870 5869 5867 5864 5862 5860 5858 5856
5820 5826 5829 5833 5837 5841 5845 5849 5852 5855 5858 5861 5864 5866 5869 5871 5873 5874 5876 5877 5877 5878 5878 5878 5877 5877 5876 5875 5874 5873 5872 5871 5870 5869 5868 5866 5865 5863 5861 5859 5857 5855 5853 5851
5811 5817 5821 5825 5829 5833 5837 5841 5844 5847 5850 5853 5856 5859 5861 5863 5865 5867 5868 5869 5869 5870 5870 5870 5870 5869 5869 5868 5867 5866 5865 5864 5863 5862 5861 5860 5859 5857 5855 5854 5852 5850 5848 5845
5804 5809 5813 5817 5822 5825 5829 5832 5836 5839 5842 5845 5848 5851 5853 5855 5857 5859 5860 5861 5861 5862 5862 5862 5862 5861 5861 5860 5859 5858 5857 5857 5856 5855 5855 5854 5852 5851 5850 5848 5847 5845 5842 5840
5796 5802 5806 5811 5814 5818 5821 5825 5828 5831 5834 5837 5839 5842 5845 5847 5849 5850 5852 5852 5853 5854 5854 5854 5854 5853 5853 5852 5852 5851 5850 5850 5849 5848 5848 5847 5846 5845 5844 5842 5841 5839 5836 5834
5788 5793 5798 5803 5806 5810 5813 5817 5820 5823 5826 5829 5831 5834 5836 5839 5840 5842 5843 5844 5845 5845 5846 5846 5846 5845 5845 5844 5844 5843 5842 5842 5842 5841 5840 5840 5839 5838 5837 5836 5834 5832 5830 5828
5780 5785 5790 5794 5798 5802 5805 5808 5811 5815 5818 5820 5823 5825 5828 5830 5832 5833 5834 5835 5836 5837 5837 5838 5838 5837 5837 5836 5835 5835 5834 5834 5833 5833 5833 5832 5832 5831 5830 5829 5828 5826 5824 5822
5773 5777 5782 5786 5790 5794 5797 5800 5803 5806 5809 5812 5814 5817 5819 5821 5823 5825 5826 5827 5828 5828 5829 5830 5830 5829 5828 5827 5827 5827 5826 5826 5826 5826 5825 5825 5824 5824 5823 5822 5821 5819 5817 5815
5765 5769 5773 5778 5782 5785 5789 5792 5795 5798 5801 5804 5806 5808 5810 5812 5814 5815 5817 5818 5819 5820 5821 5821 5821 5821 5820 5819 5819 5819 5819 5819 5819 5818 5818 5818 5817 5816 5816 5815 5813 5812 5810 5809
5757 5761 5765 5770 5774 5777 5781 5784 5787 5790 5792 5795 5797 5799 5801 5803 5805 5806 5808 5809 5810 5811 5812 5812 5813 5812 5812 5812 5811 5811 5811 5811 5811 5811 5810 5810 5810 5809 5808 5807 5806 5805 5803 5802
5749 5753 5757 5761 5765 5769 5772 5775 5778 5781 5783 5785 5787 5789 5792 5793 5795 5796 5798 5800 5801 5802 5803 5803 5803 5804 5804 5804 5803 5803 5803 5803 5803 5803 5803 5803 5802 5802 5801 5800 5798 5797 5796 5794
5742 5746 5749 5753 5757 5761 5764 5767 5769 5772 5774 5776 5778 5780 5783 5784 5786 5787 5789 5791 5792 5793 5794 5794 5794 5795 5795 5795 5795 5794 5794 5794 5795 5795 5795 5795 5794 5794 5793 5792 5791 5789 5788 5786
5735 5739 5742 5746 5749 5752 5755 5758 5760 5763 5765 5767 5769 5771 5773 5775 5777 5778 5780 5782 5783 5784 5785 5785 5785 5786 5786 5786 5786 5785 5785 5786 5787 5787 5787 5787 5787 5786 5785 5784 5783 5781 5779 5778
5728 5732 5736 5738 5741 5744 5747 5749 5752 5754 5756 5758 5760 5762 5764 5766 5768 5769 5770 5772 5774 5775 5775 5776 5776 5777 5777 5778 5778 5777 5777 5778 5779 5779 5779 5779 5779 5778 5777 5776 5774 5772 5771 5769
5722 5725 5729 5731 5734 5736 5739 5741 5743 5745 5747 5750 5752 5753 5755 5757 5758 5760 5762 5763 5765 5766 5766 5767 5768 5769 5769 5769 5770 5770 5770 5770 5771 5771 5771 5771 5770 5770 5769 5767 5766 5764 5762 5760
5716 5719 5722 5725 5727 5729 5731 5733 5735 5737 5739 5741 5743 5745 5746 5748 5750 5751 5753 5755 5755 5757 5758 5759 5760 5760 5760 5760 5761 5762 5762 5763 5763 5763 5763 5762 5762 5761 5760 5759 5757 5755 5753 5751
5710 5713 5716 5718 5720 5722 5724 5726 5728 5730 5731 5733 5735 5737 5738 5740 5741 5743 5744 5746 5747 5748 5749 5750 5751 5752 5752 5752 5753 5754 5754 5754 5755 5755 5754 5754 5753 5752 5751 5750 5748 5746 5744 5742
5705 5707 5710 5712 5714 5716 5718 5720 5721 5723 5725 5726 5727 5729 5730 5732 5734 5735 5736 5738 5739 5740 5741 5741 5742 5743 5744 5745 5745 5746 5746 5746 5746 5746 5745 5745 5744 5743 5742 5741 5739 5737 5735 5733
5700 5702 5704 5707 5709 5710 5712 5713 5715 5716 5717 5719 5720 5722 5723 5724 5726 5727 5729 5730 5731 5731 5732 5733 5733 5735 5736 5737 5737 5737 5738 5737 5737 5737 5737 5736 5735 5734 5733 5731 5729 5728 5726 5723
5695 5697 5699 5701 5703 5705 5706 5707 5709 5710 5711 5712 5713 5715 5716 5717 5718 5720 5721 5722 5722 5723 5723 5724 5725 5727 5728 5729 5729 5728 5729 5729 5728 5728 5727 5727 5726 5724 5723 5721 5720 5718 5716 5713